| time (UTC) | temp F | wind direction | speed MPH | gust MPH | rain 1hr in | rain 24hr in | rain mn in | humidity % | barometer mb |
| 20260905091537 | 50 | 211 | 0.0 | 0.0 | 0.00 | 0.09 | 0.00 | 81 | 1010.5 |
| 20260905090036 | 51 | 211 | 0.0 | 0.0 | 0.00 | 0.09 | 0.00 | 80 | 1010.5 |
| 20260905084534 | 51 | 211 | 0.0 | 0.0 | 0.00 | 0.09 | 0.00 | 80 | 1010.7 |
| 20260905083033 | 51 | 211 | 0.0 | 0.0 | 0.00 | 0.09 | 0.00 | 81 | 1010.6 |
| 20260905081531 | 51 | 211 | 0.0 | 0.0 | 0.00 | 0.09 | 0.00 | 81 | 1010.6 |
| 20260905080033 | 51 | 211 | 0.0 | 0.0 | 0.00 | 0.09 | 0.00 | 81 | 1010.7 |
| 20260905074529 | 51 | 211 | 0.0 | 0.0 | 0.00 | 0.09 | 0.00 | 82 | 1010.7 |
| 20260905073036 | 51 | 211 | 0.0 | 0.0 | 0.00 | 0.09 | 0.00 | 81 | 1010.7 |
| 20260905071526 | 51 | 211 | 0.0 | 0.0 | 0.00 | 0.09 | 0.00 | 79 | 1010.7 |
| 20260905070043 | 52 | 211 | 0.0 | 0.0 | 0.00 | 0.09 | 0.00 | 78 | 1010.7 |
| 20260905064537 | 52 | 211 | 0.0 | 0.0 | 0.00 | 0.09 | 0.09 | 76 | 1010.7 |
| 20260905063020 | 53 | 211 | 0.0 | 0.0 | 0.00 | 0.09 | 0.09 | 75 | 1010.6 |
| 20260905061519 | 53 | 211 | 0.0 | 0.0 | 0.00 | 0.09 | 0.09 | 74 | 1010.6 |
| 20260905060021 | 53 | 211 | 0.0 | 0.0 | 0.00 | 0.09 | 0.09 | 73 | 1010.7 |
| 20260905054524 | 54 | 211 | 0.0 | 0.0 | 0.00 | 0.09 | 0.09 | 71 | 1010.6 |
| 20260905053012 | 54 | 211 | 0.0 | 0.0 | 0.00 | 0.09 | 0.09 | 70 | 1010.7 |
| 20260905051518 | 55 | 211 | 0.0 | 0.0 | 0.00 | 0.09 | 0.09 | 68 | 1010.8 |
| 20260905050010 | 56 | 211 | 0.0 | 0.0 | 0.00 | 0.09 | 0.09 | 67 | 1010.8 |
| 20260905044509 | 57 | 211 | 0.0 | 0.0 | 0.00 | 0.09 | 0.09 | 66 | 1010.8 |
| 20260905043007 | 58 | 211 | 0.0 | 0.0 | 0.00 | 0.09 | 0.09 | 64 | 1010.6 |
| 20260905041506 | 59 | 211 | 0.0 | 0.0 | 0.00 | 0.09 | 0.09 | 64 | 1010.5 |
| 20260905040013 | 60 | 211 | 0.0 | 0.0 | 0.00 | 0.09 | 0.09 | 62 | 1010.5 |
| 20260905034508 | 61 | 211 | 0.0 | 0.0 | 0.00 | 0.09 | 0.09 | 60 | 1010.2 |
| 20260905033004 | 62 | 211 | 0.0 | 0.0 | 0.00 | 0.09 | 0.09 | 58 | 1009.9 |
| 20260905031502 | 63 | 211 | 0.0 | 0.0 | 0.00 | 0.09 | 0.09 | 55 | 1009.8 |
| 20260905030057 | 65 | 211 | 0.0 | 0.0 | 0.00 | 0.09 | 0.09 | 52 | 1009.6 |
| 20260905024550 | 66 | 211 | 0.0 | 0.0 | 0.00 | 0.09 | 0.09 | 49 | 1009.4 |
| 20260905023047 | 66 | 211 | 0.0 | 0.0 | 0.00 | 0.09 | 0.09 | 48 | 1009.4 |
| 20260905021547 | 67 | 211 | 0.0 | 1.0 | 0.00 | 0.09 | 0.09 | 46 | 1009.3 |
| 20260905020046 | 68 | 190 | 0.0 | 2.0 | 0.00 | 0.09 | 0.09 | 45 | 1009.3 |
| 20260905014553 | 69 | 285 | 0.0 | 1.0 | 0.00 | 0.09 | 0.09 | 43 | 1009.3 |
| 20260905013044 | 69 | 206 | 0.0 | 3.0 | 0.00 | 0.09 | 0.09 | 42 | 1009.2 |
| 20260905011543 | 70 | 294 | 0.0 | 5.0 | 0.00 | 0.09 | 0.09 | 42 | 1009.1 |
| 20260905010045 | 69 | 249 | 0.0 | 2.0 | 0.00 | 0.09 | 0.09 | 42 | 1009.0 |
| 20260905004541 | 70 | 241 | 0.0 | 2.0 | 0.00 | 0.09 | 0.09 | 40 | 1009.1 |
| 20260905003042 | 70 | 263 | 1.0 | 3.0 | 0.00 | 0.09 | 0.09 | 40 | 1009.1 |
| 20260905001540 | 71 | 286 | 1.0 | 4.0 | 0.00 | 0.09 | 0.09 | 40 | 1009.1 |
| 20260905000039 | 71 | 200 | 0.0 | 4.0 | 0.00 | 0.09 | 0.09 | 40 | 1009.2 |
| 20260904234545 | 70 | 239 | 1.0 | 5.0 | 0.00 | 0.09 | 0.09 | 43 | 1009.3 |
| 20260904233037 | 69 | 205 | 0.0 | 3.0 | 0.00 | 0.09 | 0.09 | 44 | 1009.3 |
| 20260904231536 | 70 | 202 | 1.0 | 4.0 | 0.00 | 0.09 | 0.09 | 44 | 1009.4 |
| 20260904230035 | 71 | 257 | 0.0 | 4.0 | 0.00 | 0.09 | 0.09 | 46 | 1009.3 |
| 20260904224533 | 72 | 189 | 2.0 | 7.0 | 0.00 | 0.09 | 0.09 | 45 | 1009.3 |
| 20260904223043 | 72 | 198 | 1.0 | 5.0 | 0.00 | 0.09 | 0.09 | 48 | 1009.2 |
| 20260904221544 | 70 | 250 | 0.0 | 5.0 | 0.00 | 0.09 | 0.09 | 51 | 1009.2 |
| 20260904220031 | 72 | 109 | 3.0 | 8.0 | 0.00 | 0.09 | 0.09 | 50 | 1009.3 |
| 20260904214528 | 72 | 274 | 1.0 | 5.0 | 0.00 | 0.09 | 0.09 | 53 | 1009.3 |
| 20260904213024 | 70 | 79 | 1.0 | 4.0 | 0.00 | 0.09 | 0.09 | 58 | 1009.3 |
| 20260904210059 | 69 | 240 | 0.0 | 6.0 | 0.00 | 0.09 | 0.09 | 60 | 1009.6 |
| 20260904204645 | 69 | 219 | 0.0 | 4.0 | 0.00 | 0.09 | 0.09 | 60 | 1009.4 |
| 20260904203059 | 67 | 137 | 1.0 | 3.0 | 0.00 | 0.09 | 0.09 | 64 | 1009.5 |
| 20260904201532 | 66 | 227 | 0.0 | 2.0 | 0.00 | 0.09 | 0.09 | 68 | 1009.5 |
| 20260904200034 | 64 | 127 | 0.0 | 2.0 | 0.00 | 0.09 | 0.09 | 70 | 1009.6 |
| 20260904194619 | 65 | 125 | 2.0 | 4.0 | 0.00 | 0.09 | 0.09 | 67 | 1009.7 |
| 20260904193039 | 66 | 198 | 0.0 | 4.0 | 0.00 | 0.09 | 0.09 | 68 | 1009.8 |
| 20260904191531 | 65 | 71 | 0.0 | 4.0 | 0.00 | 0.09 | 0.09 | 63 | 1009.9 |
| 20260904190026 | 63 | 210 | 0.0 | 2.0 | 0.00 | 0.09 | 0.09 | 77 | 1010.0 |
| 20260904184522 | 61 | 180 | 2.0 | 5.0 | 0.00 | 0.09 | 0.09 | 78 | 1010.0 |
| 20260904183120 | 60 | 134 | 0.0 | 0.0 | 0.00 | 0.09 | 0.09 | 89 | 1010.0 |
| 20260904181518 | 58 | 229 | 0.0 | 0.0 | 0.00 | 0.09 | 0.09 | 93 | 1010.0 |
| 20260904180019 | 57 | 285 | 0.0 | 0.0 | 0.00 | 0.09 | 0.09 | 93 | 1010.1 |
| 20260904174517 | 57 | 285 | 0.0 | 0.0 | 0.02 | 0.09 | 0.09 | 93 | 1010.1 |
| 20260904173019 | 56 | 172 | 0.0 | 0.0 | 0.02 | 0.09 | 0.09 | 94 | 1010.0 |
| 20260904171521 | 56 | 279 | 0.0 | 1.0 | 0.02 | 0.09 | 0.09 | 94 | 1009.8 |
| 20260904170014 | 55 | 175 | 0.0 | 2.0 | 0.02 | 0.09 | 0.09 | 94 | 1009.8 |
| 20260904164511 | 55 | 221 | 0.0 | 0.0 | 0.01 | 0.07 | 0.07 | 94 | 1009.8 |
| 20260904163011 | 55 | 221 | 0.0 | 0.0 | 0.01 | 0.07 | 0.07 | 93 | 1009.6 |
| 20260904161510 | 55 | 295 | 0.0 | 0.0 | 0.01 | 0.07 | 0.07 | 93 | 1009.6 |
| 20260904160008 | 55 | 295 | 0.0 | 0.0 | 0.01 | 0.07 | 0.07 | 93 | 1009.5 |
| 20260904154507 | 56 | 210 | 0.0 | 1.0 | 0.00 | 0.06 | 0.06 | 94 | 1009.4 |
| 20260904153012 | 56 | 205 | 0.0 | 1.0 | 0.00 | 0.06 | 0.06 | 94 | 1009.2 |
| 20260904151503 | 56 | 214 | 0.0 | 0.0 | 0.00 | 0.06 | 0.06 | 94 | 1009.2 |
| 20260904150100 | 56 | 214 | 0.0 | 0.0 | 0.00 | 0.06 | 0.06 | 94 | 1008.9 |
| 20260904150002 | 56 | 214 | 0.0 | 0.0 | 0.00 | 0.06 | 0.06 | 94 | 1008.8 |
| 20260904144600 | 56 | 212 | 0.0 | 0.0 | 0.00 | 0.06 | 0.06 | 94 | 1008.8 |
| 20260904143057 | 56 | 212 | 0.0 | 0.0 | 0.00 | 0.06 | 0.06 | 94 | 1008.6 |
| 20260904141620 | 55 | 212 | 0.0 | 0.0 | 0.00 | 0.06 | 0.06 | 94 | 1008.4 |
| 20260904140105 | 55 | 212 | 0.0 | 0.0 | 0.00 | 0.06 | 0.06 | 94 | 1008.4 |
| 20260904134557 | 56 | 212 | 0.0 | 0.0 | 0.00 | 0.06 | 0.06 | 94 | 1008.3 |
| 20260904133107 | 56 | 212 | 0.0 | 0.0 | 0.01 | 0.06 | 0.06 | 93 | 1008.1 |
| 20260904131605 | 56 | 212 | 0.0 | 0.0 | 0.02 | 0.06 | 0.06 | 93 | 1008.1 |
| 20260904130048 | 56 | 212 | 0.0 | 1.0 | 0.03 | 0.06 | 0.06 | 93 | 1008.0 |
| 20260904124546 | 56 | 203 | 0.0 | 2.0 | 0.04 | 0.06 | 0.06 | 93 | 1008.0 |
| 20260904123045 | 57 | 219 | 0.0 | 2.0 | 0.03 | 0.05 | 0.05 | 93 | 1007.8 |
| 20260904121543 | 57 | 194 | 0.0 | 2.0 | 0.03 | 0.04 | 0.04 | 93 | 1007.7 |
| 20260904120044 | 58 | 250 | 0.0 | 2.0 | 0.03 | 0.03 | 0.03 | 93 | 1007.6 |
| 20260904114539 | 58 | 120 | 0.0 | 1.0 | 0.02 | 0.02 | 0.02 | 93 | 1007.6 |
| 20260904113041 | 58 | 209 | 0.0 | 1.0 | 0.02 | 0.02 | 0.02 | 93 | 1007.4 |
| 20260904111537 | 58 | 155 | 0.0 | 0.0 | 0.01 | 0.01 | 0.01 | 92 | 1007.3 |
| 20260904110036 | 58 | 155 | 0.0 | 0.0 | 0.00 | 0.00 | 0.00 | 92 | 1007.2 |
| 20260904104536 | 58 | 155 | 0.0 | 0.0 | 0.00 | 0.00 | 0.00 | 92 | 1007.2 |
| 20260904103040 | 58 | 193 | 0.0 | 0.0 | 0.00 | 0.00 | 0.00 | 92 | 1007.2 |
| 20260904101535 | 58 | 188 | 0.0 | 0.0 | 0.00 | 0.00 | 0.00 | 91 | 1007.2 |
| 20260904100033 | 59 | 188 | 0.0 | 0.0 | 0.00 | 0.00 | 0.00 | 91 | 1007.2 |
| 20260904094531 | 59 | 188 | 0.0 | 1.0 | 0.00 | 0.00 | 0.00 | 91 | 1007.2 |
| 20260904093031 | 59 | 204 | 0.0 | 1.0 | 0.00 | 0.00 | 0.00 | 90 | 1007.2 |